Flag for U.S.A. Weather past 2 weeks in New Salem, North Dakota, U.S.A.

Now
61 °F

Sunny.


Feels Like: 61 °F
Forecast: 50 / 74 °F
Wind: 6 mph from Northeast

Location: Bismarck Municipal Airport

Current Time: Jul 6, 2015 at 10:19:59 PM

Latest Report: Jul 6, 2015 at 9:52 PM


Visibility: 8 mi

Pressure: 30.16 "Hg (27.88 "Hg at 664m altitude)

Humidity: 70%

Dew point: 51 °F

Location of New SalemLocation

Historic Weather in New Salem — Graph

°F

New Salem temperature yesterday

Maximum temperature yesterday: 79 °F (at 2:52 PM)
Minimum temperature yesterday: 67 °F (at 5:52 AM)
Average temperature yesterday: 71 °F

Past Weeks' High & Low Weather Summary

 TemperatureHumidityPressure
High92 °F (Jun 29, 3:52 PM)100% (Jun 22, 3:52 AM)30.17 "Hg (Jun 22, 3:52 AM)
Low50 °F (Jun 23, 5:52 AM)28% (Jun 29, 3:52 PM)29.67 "Hg (Jun 21, 8:52 PM)
Average70 °F72%29.96 "Hg
* Reported Jun 21 8:52 PM — Jul 6 8:52 PM, New Salem, Weather by CustomWeather, © 2015

Note: Actual official high and low records may vary slightly from our data, if they occured in-between our weather recording intervals... More about our weather records

Advertising

New Salem weather history for previous 24 hours

 ConditionsComfort  
Time TempWeatherWind HumidityBarometerVisibility
8:52 PM
Mon, Jul 6
64 °FPassing clouds.8 mph61%30.15 "Hg7 mi
7:52 PM66 °FPartly sunny.10 mph61%30.15 "Hg5 mi
6:52 PM68 °FBroken clouds.12 mph57%30.15 "Hg5 mi
5:52 PM71 °FPartly sunny.10 mph51%30.14 "Hg4 mi
4:52 PM70 °FCloudy.9 mph55%30.15 "Hg4 mi
3:52 PM71 °FPartly sunny.13 mph49%30.14 "Hg3 mi
2:52 PM70 °FPartly sunny.13 mph51%30.14 "Hg4 mi
1:52 PM69 °FOvercast.13 mph57%30.14 "Hg3 mi
12:52 PM70 °FPartly sunny.15 mph51%30.14 "Hg4 mi
11:52 AM68 °FMostly cloudy.12 mph57%30.14 "Hg3 mi
10:52 AM67 °FMostly cloudy.8 mph63%30.14 "Hg3 mi
9:52 AM65 °FOvercast.6 mph73%30.13 "Hg3 mi
8:52 AM62 °FBroken clouds.7 mph78%30.12 "Hg3 mi
7:52 AM60 °FSunny.6 mph80%30.11 "Hg5 mi
6:52 AM60 °FClear.7 mph80%30.09 "Hg6 mi
5:52 AM61 °FPassing clouds.8 mph75%30.07 "Hg8 mi
4:52 AM61 °FClear.7 mph78%30.05 "Hg7 mi
3:52 AM62 °FClear.8 mph75%30.03 "Hg6 mi
2:52 AM63 °FClear.12 mph73%30.00 "Hg5 mi
1:52 AM64 °FHaze.9 mph75%29.98 "Hg2 mi
12:52 AM66 °FPassing clouds.10 mph73%29.98 "Hg2 mi
11:52 PM
Sun, Jul 5
68 °FPassing clouds.10 mph70%29.97 "Hg2 mi
10:52 PM69 °FPassing clouds.5 mph73%29.96 "Hg2 mi
Weather by CustomWeather, © 2015

See weather overviewHow to use our weather pages